Location: Newark
(48.1500°N, 2.9667°W)
Time: 10:49:44
(UTC+00:00)

A-11 Canister half - Pass Details

Date: 01 February 2020
Orbit: 1517 x 1683 km, 47.2° (Epoch: 22 February)

Event Time Altitude Azimuth Distance (km) Brightness Sun altitude
Rises 19:39:04 0° 185° (S) 4,813 11.6 -24.8°
Reaches altitude 10° 19:43:25 10° 168° (SSE) 3,800 10.9 -25.6°
Enters shadow 19:46:32 16° 150° (SSE) 3,301 10.4 -26.1°
